| time (UTC) | temp C | wind direction | speed KPH | gust KPH | rain 1hr cm | rain 24hr cm | rain mn cm | humidity % | barometer mb |
| 20260504004501 | 12 | 29 | 1.6 | 3.2 | 0.00 | 0.00 | 0.00 | 62 | 1015.0 |
| 20260504003003 | 12 | 34 | 3.2 | 4.8 | 0.00 | 0.00 | 0.00 | 63 | 1015.0 |
| 20260504001502 | 12 | 36 | 6.4 | 6.4 | 0.00 | 0.00 | 0.00 | 61 | 1015.0 |
| 20260504000002 | 12 | 19 | 0.0 | 1.6 | 0.00 | 0.00 | 0.00 | 61 | 1015.0 |
| 20260503234502 | 13 | 39 | 0.0 | 0.0 | 0.00 | 0.00 | 0.00 | 58 | 1015.0 |
| 20260503233003 | 13 | 39 | 3.2 | 4.8 | 0.00 | 0.00 | 0.00 | 58 | 1015.0 |
| 20260503231502 | 13 | 23 | 1.6 | 3.2 | 0.00 | 0.00 | 0.00 | 58 | 1015.0 |
| 20260503230002 | 13 | 38 | 0.0 | 3.2 | 0.00 | 0.00 | 0.00 | 56 | 1015.0 |
| 20260503224502 | 14 | 124 | 1.6 | 3.2 | 0.00 | 0.00 | 0.00 | 53 | 1015.0 |
| 20260503223002 | 15 | 83 | 0.0 | 1.6 | 0.00 | 0.00 | 0.00 | 52 | 1015.0 |
| 20260503221502 | 15 | 127 | 6.4 | 11.3 | 0.00 | 0.00 | 0.00 | 50 | 1015.0 |
| 20260503220003 | 15 | 54 | 1.6 | 9.7 | 0.00 | 0.00 | 0.00 | 50 | 1015.0 |
| 20260503214502 | 15 | 94 | 3.2 | 4.8 | 0.00 | 0.00 | 0.00 | 50 | 1015.0 |
| 20260503213004 | 16 | 86 | 1.6 | 1.6 | 0.00 | 0.00 | 0.00 | 50 | 1016.0 |
| 20260503211502 | 16 | 103 | 3.2 | 6.4 | 0.00 | 0.00 | 0.00 | 49 | 1016.0 |
| 20260503210002 | 16 | 111 | 6.4 | 9.7 | 0.00 | 0.00 | 0.00 | 48 | 1016.0 |
| 20260503204502 | 16 | 121 | 6.4 | 9.7 | 0.00 | 0.00 | 0.00 | 48 | 1016.0 |
| 20260503203002 | 16 | 110 | 3.2 | 12.9 | 0.00 | 0.00 | 0.00 | 47 | 1016.0 |
| 20260503201502 | 17 | 129 | 3.2 | 6.4 | 0.00 | 0.00 | 0.00 | 47 | 1016.0 |
| 20260503200003 | 17 | 105 | 6.4 | 9.7 | 0.00 | 0.00 | 0.00 | 47 | 1016.0 |
| 20260503194502 | 17 | 160 | 3.2 | 4.8 | 0.00 | 0.00 | 0.00 | 47 | 1016.0 |
| 20260503193002 | 17 | 121 | 0.0 | 1.6 | 0.00 | 0.00 | 0.00 | 46 | 1016.0 |
| 20260503191502 | 18 | 115 | 0.0 | 1.6 | 0.00 | 0.00 | 0.00 | 45 | 1016.0 |
| 20260503190003 | 18 | 115 | 0.0 | 3.2 | 0.00 | 0.00 | 0.00 | 45 | 1016.0 |
| 20260503184503 | 18 | 79 | 1.6 | 4.8 | 0.00 | 0.00 | 0.00 | 45 | 1016.0 |
| 20260503183002 | 19 | 104 | 6.4 | 12.9 | 0.00 | 0.00 | 0.00 | 43 | 1016.0 |
| 20260503181503 | 19 | 83 | 3.2 | 6.4 | 0.00 | 0.00 | 0.00 | 43 | 1016.0 |
| 20260503180002 | 20 | 133 | 1.6 | 4.8 | 0.00 | 0.00 | 0.00 | 42 | 1016.0 |
| 20260503174502 | 20 | 97 | 4.8 | 14.5 | 0.00 | 0.00 | 0.00 | 39 | 1016.0 |
| 20260503173002 | 21 | 128 | 3.2 | 14.5 | 0.00 | 0.00 | 0.00 | 39 | 1015.0 |
| 20260503171502 | 21 | 108 | 9.7 | 11.3 | 0.00 | 0.00 | 0.00 | 37 | 1015.0 |
| 20260503081502 | 19 | 156 | 0.0 | 3.2 | 0.00 | 0.00 | 0.00 | 43 | 1019.0 |
| 20260503071502 | 18 | 126 | 1.6 | 3.2 | 0.00 | 0.00 | 0.00 | 43 | 1020.0 |
| 20260503054502 | 12 | 31 | 1.6 | 4.8 | 0.00 | 0.00 | 0.00 | 58 | 1019.0 |
| 20260503053003 | 10 | 0 | 0.0 | 0.0 | 0.00 | 0.00 | 0.00 | 74 | 1019.0 |
| 20260503051503 | 7 | 20 | 0.0 | 1.6 | 0.00 | 0.00 | 0.00 | 82 | 1020.0 |
| 20260503050002 | 5 | 22 | 0.0 | 0.0 | 0.00 | 0.00 | 0.00 | 87 | 1019.0 |
| 20260503044502 | 4 | 22 | 0.0 | 0.0 | 0.00 | 0.00 | 0.00 | 88 | 1019.0 |
| 20260503043002 | 3 | 22 | 0.0 | 0.0 | 0.00 | 0.00 | 0.00 | 90 | 1019.0 |
| 20260503041501 | 3 | 22 | 0.0 | 0.0 | 0.00 | 0.00 | 0.00 | 91 | 1019.0 |
| 20260503040002 | 2 | 22 | 0.0 | 0.0 | 0.00 | 0.00 | 0.00 | 93 | 1019.0 |
| 20260503034502 | 2 | 22 | 0.0 | 0.0 | 0.00 | 0.00 | 0.00 | 93 | 1019.0 |
| 20260503033002 | 2 | 23 | 0.0 | 1.6 | 0.00 | 0.00 | 0.00 | 93 | 1019.0 |
| 20260503031502 | 3 | 23 | 0.0 | 1.6 | 0.00 | 0.00 | 0.00 | 92 | 1019.0 |
| 20260503030003 | 3 | 22 | 0.0 | 0.0 | 0.00 | 0.00 | 0.00 | 93 | 1019.0 |
| 20260503024502 | 3 | 23 | 0.0 | 1.6 | 0.00 | 0.00 | 0.00 | 91 | 1019.0 |
| 20260503023002 | 3 | 22 | 0.0 | 0.0 | 0.00 | 0.00 | 0.00 | 89 | 1019.0 |
| 20260503021502 | 3 | 22 | 0.0 | 0.0 | 0.00 | 0.00 | 0.00 | 90 | 1019.0 |
| 20260503020002 | 3 | 23 | 0.0 | 1.6 | 0.00 | 0.00 | 0.00 | 91 | 1020.0 |
| 20260503014502 | 3 | 21 | 1.6 | 1.6 | 0.00 | 0.00 | 0.00 | 90 | 1020.0 |
| 20260503013002 | 4 | 328 | 0.0 | 0.0 | 0.00 | 0.00 | 0.00 | 89 | 1020.0 |
| 20260503011502 | 4 | 328 | 0.0 | 0.0 | 0.00 | 0.00 | 0.00 | 89 | 1020.0 |
| 20260503010002 | 4 | 329 | 0.0 | 0.0 | 0.00 | 0.00 | 0.00 | 90 | 1020.0 |